Weather in Kharuta

Russia / Nenets Autonomous Okrug     66°50′24″N   59°31′33″E
temp.,
°C
wind,
m/s
gust,
m/s
humid.,
%
clouds,
%
prec.,
mm/h
press.,
hPa
HPBL,
m
12 august, fri
fri1200:00+11s51384100 0.0 1006193
03:00+12sw61080100 0.3 1005192
06:00+11ssw71491100 2.4 1003390
09:00+12sw81197100 8.8 1002456
12:00+18nw676135 0.3 10011276
15:00+19nw5647100 0.3 10012011
18:00+16w4665100 0.1 1001141
21:00+11nw61194100 0.9 1002351
13 august, sat
sat1300:00+8wnw611955 0.0 1004248
03:00+7w6129557 0.0 1005249
06:00+8w7129298 0.0 1005589
09:00+11w9107493 0.2 10051159
12:00+10w91285100 0.3 1006801
15:00+9w101489100 0.6 1006789
18:00+8w101391100 0.9 10061159
21:00+8wnw101691100 1.8 1006738
14 august, sun
sun1400:00+8wnw101490100 0.0 1007831
03:00+7wnw101588100 0.1 1009746
06:00+8wnw11138265 0.1 10111028
09:00+8wnw101276100 0.3 10131254
12:00+9wnw91263100 0.1 10141578
15:00+9nw91259100 0.1 10161565
18:00+9nw71064100 0.0 1017953
21:00+8wnw51074100 0.0 1017422
15 august, mon
mon1500:00+7wnw61078100 0.0 1018362
03:00+6wnw4685100 0.1 1019131
06:00+9w5870100 0.0 1019356
09:00+13wsw6656100 0.0 1018943
12:00+16wsw674473 0.0 10161798
15:00+15w81058100 0.2 10151616
18:00+11nw91287100 1.8 1015486
21:00+8nw579179 1.8 101696
16 august, tue
tue1600:00+7wnw5119485 0.0 1017200
03:00+7nw71295100 0.0 1018412
06:00+9nw71086100 0.0 1019804
09:00+10nw7108388 0.1 1021778
12:00+11wnw91076100 0.1 1022816
15:00+12nw896464 0.1 10231120
18:00+12nw685919 0.0 1023478
21:00+6nnw338496 0.0 102415